STARLINK-32480, 62039

Orbit data source: Space-Track

STARLINK-32480, 62039 is a payload satellite owned by SpaceX/Seattle (US) in LEO that was launched on Thu, 21 Nov 2024 UTC via an FALCON 9 launch vehicle from the Air Force Eastern Test Range (AFETR). Payload-class satellites include a variety of spacecraft equipped with specific instruments for various scientific and technological missions. These include communications satellites like Starlink; space stations such as the ISS; scientific satellites like the Hubble; Earth observation satellites from companies like Planet Labs, Umbra, and HawkEye 360; GPS; miniature CubeSats for education and research; and military/defense satellites.

Loading next visibility...
Identifier
62039, 2024-216H
Orbit
LEO
Last TLE update
22 hours ago
Origin
Manufacturer
SpaceX/Seattle
Mission
Operational Commercial Communications
Bus & Motor
STARLINK V2M, Unknown motor
Mass
730 kg wet, ~700 kg dry
Launch date (UTC)
2024-11-21 (7 months ago)
Launch vehicle
FALCON 9
Launch site
Air Force Eastern Test Range (AFETR)
Object type
Payload
Rocket body
Debris
Shape & HBR
Box + 2 Pan, 29 m
Radar Cross Section
36.964 m², Large (>1 m²)

Expand to show TLE details & history

TLE from 22 hours ago
0 STARLINK-32480
1 62039U 24216H   25185.81375959  .00015104  00000-0  54314-3 0  9994
2 62039  42.9954 216.4236 0000175 347.5106  12.5742 15.28423570 34801
Epoch: 2025-07-04T19:31Z
TLE epoch observation values (Epoch: 2025-07-04T19:31:48.828Z)
Latitude
0.00001°
Longitude
0.4094°
Altitude
480.182 km
Speed
7.627 km/s
True Right ascension
14h 25m 41s
True Declination
0° 00' 00"
Sunlit
Object was in daylight at epoch
Visualization orbit readout
Latitude
-21.94794°
Longitude
-30.18877°
Altitude
485.414 km
Speed
7.623 km/s
Apparent Right ascension
14h 27m 30s
Apparent Declination
-36° 04' 13"
Sunlit
Object is in daylight
Visualization observer readout
Local Sidereal Time
05:15:58
Azimuth
97.03° ESE
Elevation
-56.895°
Doppler factor
1
Orbital elements
Apogee altitude
482.591 km
Perigee altitude
482.351 km
Semi-major axis
6,860.608 km
Eccentricity
0.00002
Inclination
42.9954°
RAAN
216.4236°
Arg. of periapsis
347.5106°
True anomaly
Unknown
Mean anomaly
12.5742°
Eccentric anomaly
Unknown
Mean motion
3.81944 °/min
Orbital period
94.25 mins
BSTAR
0.00054314
Loading maneuver chart data...
Loading SW <> Apogee altitude chart data...
Loading historical data...
Loading historical data...
Loading historical data...
Loading historical data...
Loading historical data...
Loading historical data...
Loading historical data...

STARLINK-32480 Visibility forecast

Observer location: undefined°, undefined°

Span
Click to sort rows by Start time (UTC) header in descending order
Start Az.
Max El. time (UTC)
Max El. Az.
Max El.
End time (UTC)
End Az.
5 mins2025-07-06 04:39:37.022Z200.858° SSW2025-07-06 04:42:37.022Z136.302° SSE23.826°2025-07-06 04:44:37.022Z96.519° ESE
5 mins2025-07-06 06:18:37.022Z257.267° W2025-07-06 06:20:37.022Z285.255° WNW43.769°2025-07-06 06:23:37.022Z70.155° E
6 mins2025-07-06 07:57:37.022Z290.477° WNW2025-07-06 07:59:37.022Z337.028° NNW36.895°2025-07-06 08:03:37.022Z78.609° E
6 mins2025-07-06 09:36:37.022Z287.916° WNW2025-07-06 09:38:37.022Z285.852° WNW42.685°2025-07-06 09:42:37.022Z109.809° ESE
|